Home   Weather   Flekkefjord   Past weeks

Flag for Norway Past Weather in Flekkefjord, Norway — Yesterday and Last 2 Weeks

Now
37 °F

Chilly.


Feels Like: 31 °F
Forecast: 37 / 46 °F
Wind: 9 mph from Northwest

Location: Lista Fyr

Current Time: Apr 25, 2017 at 1:20:52 am

Latest Report: Apr 25, 2017 at 12:00 am


Visibility: N/A

Pressure: 29.56 "Hg

Humidity: 73%

Dew Point: 29 °F

Location of FlekkefjordLocation

Past Weather in Flekkefjord — Graph

°F

Flekkefjord Temperature Yesterday

Maximum temperature yesterday: 44 °F (at 5:00 am)
Minimum temperature yesterday: 36 °F (at 8:00 pm)
Average temperature yesterday: 41 °F

High & Low Weather Summary for the Past Weeks

 TemperatureHumidityPressure
High48 °F (Apr 14, 3:00 pm)98% (Apr 11, 10:00 pm)30.61 "Hg (Apr 11, 10:00 pm)
Low32 °F (Apr 16, 6:00 am)44% (Apr 18, 11:00 am)29.47 "Hg (Apr 24, 6:00 am)
Average41 °F81%29.95 "Hg
* Reported Apr 10 12:00 am — Apr 25 12:00 am, Flekkefjord, Weather by CustomWeather, © 2017

Note: Actual official high and low records may vary slightly from our data, if they occured in-between our weather recording intervals... More about our weather records

Advertising

Flekkefjord Weather History for the Previous 24 Hours

Scroll right to see more
 ConditionsComfort  
Time TempWeatherWind HumidityBarometerVisibility
12:00 am
Tue, Apr 25
37 °FChilly.9 mph73%29.56 "HgN/A
11:00 pm
Mon, Apr 24
37 °FChilly.12 mph73%29.58 "HgN/A
8:00 pm36 °FScattered clouds.16 mph83%29.59 "Hg14 mi
7:00 pm40 °FChilly.15 mph59%29.59 "HgN/A
6:00 pm40 °FChilly.17 mph64%29.58 "HgN/A
5:00 pm40 °FQuite cool.17 mph52%29.56 "HgN/A
4:00 pm41 °FQuite cool.17 mph56%29.54 "HgN/A
3:00 pm41 °FQuite cool.16 mph54%29.55 "HgN/A
2:00 pm42 °FScattered clouds.15 mph57%29.54 "Hg17 mi
1:00 pm43 °FQuite cool.13 mph51%29.54 "HgN/A
12:00 pm42 °FQuite cool.12 mph55%29.50 "HgN/A
11:00 am42 °FPassing clouds.12 mph65%29.50 "Hg17 mi
10:00 am40 °FQuite cool.13 mph71%29.47 "HgN/A
9:00 am40 °FChilly.12 mph75%29.47 "HgN/A
8:00 am40 °FScattered clouds.12 mph81%29.47 "Hg10 mi
7:00 am40 °FChilly.12 mph82%29.47 "HgN/A
6:00 am42 °FQuite cool.14 mph89%29.47 "HgN/A
5:00 am44 °FQuite cool.15 mph92%29.50 "HgN/A
4:00 am44 °FQuite cool.14 mph93%29.58 "HgN/A
3:00 am43 °FQuite cool.16 mph94%29.64 "HgN/A
2:00 am42 °FQuite cool.16 mph92%29.70 "HgN/A
1:00 am42 °FQuite cool.16 mph89%29.77 "HgN/A
Weather by CustomWeather, © 2017

See weather overviewHow to use our weather pages